User: anonymous   Login
Location: Unspecified
(0.0000°N, 0.0000°E)
Time: 17:48:13
(UTC+00:00)
Language:

Tiros 1 - Orbit

View from above orbital plane
View from above orbital plane
View from above satellite
View from above satellite

Ground track
Ground track

The orbit data is extracted from the following two-line orbital elements,

1    29U 60002B   20018.13147232 -.00000146  00000-0  92026-5 0  9999
2    29  48.3805 302.7448 0024624 304.6390  55.2201 14.74337373196331
Epoch (UTC): 18 January 2020 03:09:19
Eccentricity: 0.0024624
inclination: 48.3805°
perigee height: 630 km
apogee height: 664 km
right ascension of ascending node: 302.7448°
argument of perigee: 304.6390°
revolutions per day: 14.74337373
mean anomaly at epoch: 55.2201°
orbit number at epoch: 19633

The dashed part of the orbit path shows where the satellite is in the earth's shadow,  

DLR